GW1187 Weather Reports


Display with metric or nautical units.
time (UTC)temp
F
wind
direction
speed
MPH
gust
MPH
rain 1hr
in
rain 24hr
in
rain mn
in
humidity
%
barometer
mb
20260505170047 78 311 7.0 16.0 0.00 0.00 0.00 38 1006.4
20260505164558 77 356 10.0 17.0 0.00 0.00 0.00 39 1006.7
20260505163048 77 346 5.0 16.0 0.00 0.00 0.00 40 1007.2
20260505161544 76 54 8.0 17.0 0.00 0.00 0.00 41 1007.5
20260505153105 74 117 7.0 17.0 0.00 0.00 0.00 45 1008.1
20260505151553 72 336 3.0 18.0 0.00 0.00 0.00 48 1008.4
20260505124548 59 17 3.0 8.0 0.00 0.00 0.00 67 1008.9
20260505123045 58 20 3.0 6.0 0.00 0.00 0.00 67 1009.0
20260505121544 57 68 0.0 8.0 0.00 0.00 0.00 69 1009.0
20260505120041 57 359 3.0 10.0 0.00 0.00 0.00 69 1009.0
20260505114548 56 313 1.0 4.0 0.00 0.00 0.00 69 1009.1
20260505113047 55 32 1.0 5.0 0.00 0.00 0.00 71 1008.9
20260505111553 53 4 2.0 4.0 0.00 0.00 0.00 73 1008.9
20260505101540 50 0 0.0 0.0 0.00 0.00 0.00 76 1008.4
20260505100052 50 27 1.0 2.0 0.00 0.00 0.00 75 1008.5
20260505094547 51 26 2.0 4.0 0.00 0.00 0.00 74 1008.4
20260505093045 51 37 2.0 4.0 0.00 0.00 0.00 73 1008.5
20260505091553 51 18 2.0 4.0 0.00 0.00 0.00 73 1008.6
20260505090052 52 357 3.0 6.0 0.00 0.00 0.00 72 1008.8
20260505084540 52 10 2.0 4.0 0.00 0.00 0.00 71 1008.6
20260505083047 52 18 1.0 4.0 0.00 0.00 0.00 71 1008.8
20260505081558 52 27 1.0 4.0 0.00 0.00 0.00 71 1008.7
20260505080049 53 44 1.0 3.0 0.00 0.00 0.00 70 1008.7
20260505074602 54 43 2.0 5.0 0.00 0.00 0.00 69 1008.7
20260505073041 54 32 3.0 7.0 0.00 0.00 0.00 68 1008.7
20260505071540 53 23 4.0 8.0 0.00 0.00 0.00 69 1008.6
20260505070047 52 41 2.0 5.0 0.00 0.00 0.00 71 1008.5
20260505064547 52 0 0.0 2.0 0.00 0.00 0.00 71 1008.7
20260505063045 52 22 1.0 3.0 0.00 0.00 0.00 71 1008.9
20260505061606 51 0 0.0 0.0 0.00 0.00 0.00 73 1009.1
20260505060045 51 0 0.0 0.0 0.00 0.00 0.00 73 1009.2
20260505054555 51 0 0.0 0.0 0.00 0.00 0.00 72 1009.2
20260505053041 51 0 0.0 0.0 0.00 0.00 0.00 71 1009.3
20260505051540 52 0 0.0 0.0 0.00 0.00 0.00 69 1009.3
20260505041541 54 34 1.0 4.0 0.00 0.00 0.00 63 1009.4
20260505040047 55 24 2.0 4.0 0.00 0.00 0.00 62 1009.3
20260505034545 55 34 1.0 5.0 0.00 0.00 0.00 60 1009.2
20260505033048 56 25 2.0 4.0 0.00 0.00 0.00 59 1009.1
20260505031541 57 1 3.0 9.0 0.00 0.00 0.00 58 1009.2
20260505030048 57 349 3.0 10.0 0.00 0.00 0.00 57 1009.2
20260505024605 57 354 2.0 6.0 0.00 0.00 0.00 56 1009.2
20260505023049 58 21 4.0 11.0 0.00 0.00 0.00 55 1009.2
20260505021602 59 360 3.0 11.0 0.00 0.00 0.00 54 1008.9
20260505020046 59 322 5.0 9.0 0.00 0.00 0.00 53 1009.0
20260505014545 60 7 3.0 11.0 0.00 0.00 0.00 52 1009.0
20260505013048 60 23 3.0 10.0 0.00 0.00 0.00 51 1008.8
20260505011554 60 23 3.0 9.0 0.00 0.00 0.00 50 1008.5
20260505010045 61 14 3.0 12.0 0.00 0.00 0.00 48 1008.3
20260505004546 60 326 4.0 10.0 0.00 0.00 0.00 48 1008.1
20260505003047 61 0 0.0 0.0 0.00 0.00 0.00 46 1007.5
20260505001548 62 0 0.0 0.0 0.00 0.00 0.00 43 1007.3
20260505000046 64 0 0.0 4.0 0.00 0.00 0.00 41 1007.1
20260504234543 65 356 3.0 6.0 0.00 0.00 0.00 38 1006.8
20260504233055 65 86 2.0 6.0 0.00 0.00 0.00 37 1006.7
20260504231548 66 329 1.0 10.0 0.00 0.00 0.00 37 1006.3
20260504230047 67 70 1.0 5.0 0.00 0.00 0.00 37 1006.2
20260504224546 67 74 0.0 6.0 0.00 0.00 0.00 36 1006.1
20260504223049 68 341 2.0 7.0 0.00 0.00 0.00 34 1005.9
20260504221556 69 340 2.0 8.0 0.00 0.00 0.00 33 1005.8
20260504220104 69 321 3.0 9.0 0.00 0.00 0.00 33 1005.9
20260504214547 69 352 3.0 10.0 0.00 0.00 0.00 33 1006.1
20260504213045 69 333 5.0 11.0 0.00 0.00 0.00 33 1006.1
20260504211541 69 151 1.0 8.0 0.00 0.00 0.00 33 1006.1
20260504210049 69 46 2.0 16.0 0.00 0.00 0.00 33 1006.1
20260504204601 70 331 2.0 7.0 0.00 0.00 0.00 31 1006.0
20260504203046 70 229 4.0 9.0 0.00 0.00 0.00 32 1006.1
20260504201542 68 146 2.0 10.0 0.00 0.00 0.00 32 1006.1
20260504200053 67 9 6.0 10.0 0.00 0.00 0.00 34 1006.2
20260504194549 68 148 5.0 11.0 0.00 0.00 0.00 34 1006.2
20260504193047 67 342 5.0 16.0 0.00 0.00 0.00 35 1006.2
20260504191545 67 154 3.0 8.0 0.00 0.00 0.00 34 1006.3
20260504190041 68 98 4.0 13.0 0.00 0.00 0.00 32 1006.3
20260504184540 68 126 3.0 11.0 0.00 0.00 0.00 33 1006.5
20260504183047 68 142 6.0 15.0 0.00 0.00 0.00 32 1006.5
20260504181552 68 101 3.0 12.0 0.00 0.00 0.00 32 1006.6
20260504180047 66 30 5.0 12.0 0.00 0.00 0.00 33 1006.6
20260504174541 65 328 4.0 9.0 0.00 0.00 0.00 34 1006.9
20260504173040 65 193 2.0 9.0 0.00 0.00 0.00 33 1006.6
20260504171548 67 348 5.0 20.0 0.00 0.00 0.00 31 1006.8